Time,TemperatureF,DewpointF,PressureIn,WindDirection,WindDirectionDegrees,WindSpeedMPH,WindSpeedGustMPH,Humidity,HourlyPrecipIn,Conditions,Clouds,dailyrainin,SoftwareType,DateUTC
2017-02-24 00:00:00,18.1,12.1,30.18,NNW,335,2.0,3.0,77,0.00,,---,0.03,VWS V15.00,2017-02-24 08:00:00,
2017-02-24 00:05:00,18.0,12.0,30.18,NNW,333,2.0,2.0,77,0.00,,---,0.00,VWS V15.00,2017-02-24 08:05:00,
2017-02-24 00:10:00,17.8,11.8,30.18,NNW,333,0.0,3.0,77,0.00,,---,0.00,VWS V15.00,2017-02-24 08:10:00,
2017-02-24 00:15:00,17.7,11.7,30.18,NNW,331,0.0,2.0,77,0.00,,---,0.00,VWS V15.00,2017-02-24 08:15:00,
2017-02-24 00:20:00,17.8,12.1,30.19,NNW,342,1.0,3.0,78,0.00,,---,0.00,VWS V15.00,2017-02-24 08:20:00,
2017-02-24 00:25:00,20.2,13.9,30.19,NNW,340,2.0,3.0,76,0.00,,---,0.00,VWS V15.00,2017-02-24 08:25:00,
2017-02-24 00:30:00,20.2,13.9,30.19,NW,312,2.0,5.0,76,0.00,,---,0.00,VWS V15.00,2017-02-24 08:30:00,
2017-02-24 00:35:00,20.0,14.0,30.19,NW,317,3.0,4.0,77,0.00,,---,0.00,VWS V15.00,2017-02-24 08:35:00,
2017-02-24 00:40:00,19.9,13.9,30.18,NW,317,2.0,3.0,77,0.00,,---,0.00,VWS V15.00,2017-02-24 08:40:00,
2017-02-24 00:45:00,19.7,14.3,30.18,NW,314,0.0,2.0,79,0.00,,---,0.00,VWS V15.00,2017-02-24 08:45:00,
2017-02-24 00:50:00,19.7,14.3,30.18,NW,314,1.0,1.0,79,0.00,,---,0.00,VWS V15.00,2017-02-24 08:50:00,
2017-02-24 00:55:00,19.4,14.0,30.18,NW,315,3.0,4.0,79,0.00,,---,0.00,VWS V15.00,2017-02-24 08:55:00,
2017-02-24 01:00:00,19.1,13.7,30.19,NNW,335,4.0,5.0,79,0.00,,---,0.00,VWS V15.00,2017-02-24 09:00:00,
2017-02-24 01:05:00,19.1,13.7,30.19,NNW,335,3.0,4.0,79,0.00,,---,0.00,VWS V15.00,2017-02-24 09:05:00,
2017-02-24 01:10:00,17.1,12.0,30.19,NNW,335,3.0,4.0,80,0.00,,---,0.00,VWS V15.00,2017-02-24 09:10:00,
2017-02-24 01:15:00,17.1,12.0,30.19,NNW,336,4.0,5.0,80,0.00,,---,0.00,VWS V15.00,2017-02-24 09:15:00,
2017-02-24 01:20:00,17.1,12.0,30.19,NNW,341,5.0,5.0,80,0.00,,---,0.00,VWS V15.00,2017-02-24 09:20:00,
2017-02-24 01:25:00,17.0,11.9,30.19,North,355,3.0,6.0,80,0.00,,---,0.00,VWS V15.00,2017-02-24 09:25:00,
2017-02-24 01:30:00,17.0,11.9,30.19,NNW,348,5.0,5.0,80,0.00,,---,0.00,VWS V15.00,2017-02-24 09:30:00,
2017-02-24 01:35:00,16.8,11.7,30.19,North,360,3.0,6.0,80,0.00,,---,0.00,VWS V15.00,2017-02-24 09:35:00,
2017-02-24 01:40:00,16.8,11.7,30.19,North,349,4.0,5.0,80,0.00,,---,0.00,VWS V15.00,2017-02-24 09:40:00,
2017-02-24 01:45:00,16.8,11.4,30.19,NNW,347,5.0,5.0,79,0.00,,---,0.00,VWS V15.00,2017-02-24 09:45:00,
2017-02-24 01:50:00,16.6,10.9,30.20,NNW,344,2.0,5.0,78,0.00,,---,0.00,VWS V15.00,2017-02-24 09:50:00,
2017-02-24 01:55:00,16.6,10.9,30.19,NNW,342,4.0,5.0,78,0.00,,---,0.00,VWS V15.00,2017-02-24 09:55:00,
2017-02-24 02:00:00,16.3,10.4,30.20,NNE,14,4.0,5.0,77,0.00,,---,0.00,VWS V15.00,2017-02-24 10:00:00,
2017-02-24 02:05:00,16.4,10.8,30.20,North,5,4.0,6.0,78,0.00,,---,0.00,VWS V15.00,2017-02-24 10:05:00,
2017-02-24 02:10:00,16.7,11.1,30.20,North,355,6.0,7.0,78,0.00,,---,0.00,VWS V15.00,2017-02-24 10:10:00,
2017-02-24 02:15:00,16.7,11.1,30.20,North,355,7.0,7.0,78,0.00,,---,0.00,VWS V15.00,2017-02-24 10:15:00,
2017-02-24 02:20:00,16.7,11.3,30.20,NNW,347,4.0,8.0,79,0.00,,---,0.00,VWS V15.00,2017-02-24 10:20:00,
2017-02-24 02:25:00,16.6,11.2,30.20,NNW,343,4.0,5.0,79,0.00,,---,0.00,VWS V15.00,2017-02-24 10:25:00,
2017-02-24 02:30:00,16.4,11.3,30.20,North,351,5.0,5.0,80,0.00,,---,0.00,VWS V15.00,2017-02-24 10:30:00,
2017-02-24 02:35:00,16.4,11.3,30.19,NNW,339,1.0,3.0,80,0.00,,---,0.00,VWS V15.00,2017-02-24 10:35:00,
2017-02-24 02:40:00,16.4,11.3,30.20,NNW,341,2.0,4.0,80,0.00,,---,0.00,VWS V15.00,2017-02-24 10:40:00,
2017-02-24 02:45:00,16.4,11.3,30.20,NNW,339,2.0,4.0,80,0.00,,---,0.00,VWS V15.00,2017-02-24 10:45:00,
2017-02-24 02:50:00,16.4,11.3,30.20,NNW,348,2.0,4.0,80,0.00,,---,0.00,VWS V15.00,2017-02-24 10:50:00,
2017-02-24 02:55:00,16.6,11.8,30.20,NNW,333,0.0,2.0,81,0.00,,---,0.00,VWS V15.00,2017-02-24 10:55:00,
2017-02-24 03:00:00,16.6,11.5,30.20,NNE,17,1.0,4.0,80,0.00,,---,0.00,VWS V15.00,2017-02-24 11:00:00,
2017-02-24 03:05:00,16.5,11.4,30.20,NNE,15,4.0,5.0,80,0.00,,---,0.00,VWS V15.00,2017-02-24 11:05:00,
2017-02-24 03:10:00,16.2,11.1,30.20,NNE,14,1.0,3.0,80,0.00,,---,0.00,VWS V15.00,2017-02-24 11:10:00,
2017-02-24 03:15:00,16.1,10.8,30.20,NNE,13,3.0,4.0,79,0.00,,---,0.00,VWS V15.00,2017-02-24 11:15:00,
2017-02-24 03:20:00,15.9,10.3,30.20,NNE,13,2.0,5.0,78,0.00,,---,0.00,VWS V15.00,2017-02-24 11:20:00,
2017-02-24 03:25:00,15.8,10.2,30.20,NNE,12,1.0,1.0,78,0.00,,---,0.00,VWS V15.00,2017-02-24 11:25:00,
2017-02-24 03:30:00,15.8,10.2,30.20,North,11,0.0,3.0,78,0.00,,---,0.00,VWS V15.00,2017-02-24 11:30:00,
2017-02-24 03:35:00,15.7,10.1,30.20,North,10,4.0,5.0,78,0.00,,---,0.00,VWS V15.00,2017-02-24 11:35:00,
2017-02-24 03:40:00,15.5,9.9,30.21,North,9,4.0,5.0,78,0.00,,---,0.00,VWS V15.00,2017-02-24 11:40:00,
2017-02-24 03:45:00,15.4,10.1,30.21,North,9,3.0,3.0,79,0.00,,---,0.00,VWS V15.00,2017-02-24 11:45:00,
2017-02-24 03:50:00,15.4,10.1,30.21,North,9,3.0,4.0,79,0.00,,---,0.00,VWS V15.00,2017-02-24 11:50:00,
2017-02-24 03:55:00,15.3,10.2,30.21,North,9,3.0,4.0,80,0.00,,---,0.00,VWS V15.00,2017-02-24 11:55:00,
2017-02-24 04:00:00,15.3,10.5,30.21,North,5,2.0,3.0,81,0.00,,---,0.00,VWS V15.00,2017-02-24 12:00:00,
2017-02-24 04:05:00,15.3,10.5,30.21,North,360,3.0,4.0,81,0.00,,---,0.00,VWS V15.00,2017-02-24 12:05:00,
2017-02-24 04:10:00,15.2,10.7,30.21,North,355,3.0,4.0,82,0.00,,---,0.00,VWS V15.00,2017-02-24 12:10:00,
2017-02-24 04:15:00,14.8,10.0,30.21,North,355,2.0,3.0,81,0.00,,---,0.00,VWS V15.00,2017-02-24 12:15:00,
2017-02-24 04:20:00,15.0,10.2,30.21,North,355,2.0,3.0,81,0.00,,---,0.00,VWS V15.00,2017-02-24 12:20:00,
2017-02-24 04:25:00,15.1,10.3,30.21,North,355,2.0,3.0,81,0.00,,---,0.00,VWS V15.00,2017-02-24 12:25:00,
2017-02-24 04:30:00,15.2,10.4,30.21,North,355,3.0,3.0,81,0.00,,---,0.00,VWS V15.00,2017-02-24 12:30:00,
2017-02-24 04:35:00,15.2,10.4,30.21,North,355,3.0,5.0,81,0.00,,---,0.00,VWS V15.00,2017-02-24 12:35:00,
2017-02-24 04:40:00,15.0,10.0,30.21,North,350,2.0,2.0,80,0.00,,---,0.00,VWS V15.00,2017-02-24 12:40:00,
2017-02-24 04:45:00,14.8,9.8,30.21,North,350,3.0,5.0,80,0.00,,---,0.00,VWS V15.00,2017-02-24 12:45:00,
2017-02-24 04:50:00,14.6,9.6,30.21,NNW,346,4.0,5.0,80,0.00,,---,0.00,VWS V15.00,2017-02-24 12:50:00,
2017-02-24 04:55:00,14.4,9.4,30.21,NNW,348,4.0,5.0,80,0.00,,---,0.00,VWS V15.00,2017-02-24 12:55:00,
2017-02-24 05:00:00,14.1,9.1,30.21,NNW,346,5.0,5.0,80,0.00,,---,0.00,VWS V15.00,2017-02-24 13:00:00,
2017-02-24 05:05:00,14.0,9.3,30.21,North,349,3.0,5.0,81,0.00,,---,0.00,VWS V15.00,2017-02-24 13:05:00,
2017-02-24 05:10:00,14.0,9.3,30.21,NNW,347,3.0,4.0,81,0.00,,---,0.00,VWS V15.00,2017-02-24 13:10:00,
2017-02-24 05:15:00,13.9,9.4,30.21,NNW,344,3.0,4.0,82,0.00,,---,0.00,VWS V15.00,2017-02-24 13:15:00,
2017-02-24 05:20:00,14.0,9.5,30.21,NNW,343,4.0,4.0,82,0.00,,---,0.00,VWS V15.00,2017-02-24 13:20:00,
2017-02-24 05:25:00,14.3,10.1,30.21,NNW,343,2.0,4.0,83,0.00,,---,0.00,VWS V15.00,2017-02-24 13:25:00,
2017-02-24 05:30:00,14.4,9.9,30.21,NNW,342,1.0,3.0,82,0.00,,---,0.00,VWS V15.00,2017-02-24 13:30:00,
2017-02-24 05:35:00,14.6,10.1,30.21,NNW,340,4.0,5.0,82,0.00,,---,0.00,VWS V15.00,2017-02-24 13:35:00,
2017-02-24 05:40:00,14.4,9.9,30.21,NNW,346,4.0,5.0,82,0.00,,---,0.00,VWS V15.00,2017-02-24 13:40:00,
2017-02-24 05:45:00,14.2,9.7,30.21,NNW,340,3.0,4.0,82,0.00,,---,0.00,VWS V15.00,2017-02-24 13:45:00,
2017-02-24 05:50:00,14.1,9.6,30.21,NNW,342,4.0,6.0,82,0.00,,---,0.00,VWS V15.00,2017-02-24 13:50:00,
2017-02-24 05:55:00,14.0,9.5,30.22,North,350,3.0,5.0,82,0.00,,---,0.00,VWS V15.00,2017-02-24 13:55:00,
2017-02-24 06:00:00,14.0,9.5,30.22,North,349,4.0,5.0,82,0.00,,---,0.00,VWS V15.00,2017-02-24 14:00:00,
2017-02-24 06:05:00,13.8,9.6,30.22,NNW,348,2.0,4.0,83,0.00,,---,0.00,VWS V15.00,2017-02-24 14:05:00,
2017-02-24 06:10:00,13.9,9.7,30.22,NNW,348,0.0,1.0,83,0.00,,---,0.00,VWS V15.00,2017-02-24 14:10:00,
2017-02-24 06:15:00,13.9,9.7,30.22,NNW,348,1.0,2.0,83,0.00,,---,0.00,VWS V15.00,2017-02-24 14:15:00,
2017-02-24 06:20:00,13.9,9.7,30.22,NNW,348,0.0,0.0,83,0.00,,---,0.00,VWS V15.00,2017-02-24 14:20:00,
2017-02-24 06:25:00,13.8,9.6,30.22,NNW,348,1.0,1.0,83,0.00,,---,0.00,VWS V15.00,2017-02-24 14:25:00,
2017-02-24 06:30:00,13.8,9.6,30.22,NNW,348,3.0,3.0,83,0.00,,---,0.00,VWS V15.00,2017-02-24 14:30:00,
2017-02-24 06:35:00,13.5,9.3,30.22,NNW,346,4.0,5.0,83,0.00,,---,0.00,VWS V15.00,2017-02-24 14:35:00,
2017-02-24 06:40:00,13.2,9.0,30.22,NNW,344,2.0,4.0,83,0.00,,---,0.00,VWS V15.00,2017-02-24 14:40:00,
2017-02-24 06:45:00,13.2,9.0,30.22,NNW,344,1.0,2.0,83,0.00,,---,0.00,VWS V15.00,2017-02-24 14:45:00,
2017-02-24 06:50:00,13.1,8.9,30.22,North,355,3.0,6.0,83,0.00,,---,0.00,VWS V15.00,2017-02-24 14:50:00,
2017-02-24 06:55:00,12.8,8.6,30.22,North,360,4.0,5.0,83,0.00,,---,0.00,VWS V15.00,2017-02-24 14:55:00,
2017-02-24 07:00:00,12.8,8.6,30.22,North,360,5.0,5.0,83,0.00,,---,0.00,VWS V15.00,2017-02-24 15:00:00,
2017-02-24 07:05:00,12.9,8.7,30.21,North,355,3.0,5.0,83,0.00,,---,0.00,VWS V15.00,2017-02-24 15:05:00,
2017-02-24 07:10:00,13.0,9.1,30.21,NNW,345,5.0,5.0,84,0.00,,---,0.00,VWS V15.00,2017-02-24 15:10:00,
2017-02-24 07:15:00,13.3,9.4,30.21,North,350,3.0,5.0,84,0.00,,---,0.00,VWS V15.00,2017-02-24 15:15:00,
2017-02-24 07:20:00,13.6,9.7,30.22,NNW,347,1.0,3.0,84,0.00,,---,0.00,VWS V15.00,2017-02-24 15:20:00,
2017-02-24 07:25:00,14.0,10.1,30.22,NNW,347,2.0,4.0,84,0.00,,---,0.00,VWS V15.00,2017-02-24 15:25:00,
2017-02-24 07:30:00,14.6,10.7,30.22,NNW,347,0.0,1.0,84,0.00,,---,0.00,VWS V15.00,2017-02-24 15:30:00,
2017-02-24 07:35:00,15.3,11.6,30.22,NNW,347,4.0,4.0,85,0.00,,---,0.00,VWS V15.00,2017-02-24 15:35:00,
2017-02-24 07:40:00,15.9,11.9,30.22,NNW,346,2.0,3.0,84,0.00,,---,0.00,VWS V15.00,2017-02-24 15:40:00,
2017-02-24 07:45:00,16.8,12.8,30.22,NNW,346,0.0,0.0,84,0.00,,---,0.00,VWS V15.00,2017-02-24 15:45:00,
2017-02-24 07:50:00,17.5,13.2,30.22,NNW,346,2.0,3.0,83,0.00,,---,0.00,VWS V15.00,2017-02-24 15:50:00,
2017-02-24 07:55:00,17.7,12.9,30.22,NNW,346,0.0,2.0,81,0.00,,---,0.00,VWS V15.00,2017-02-24 15:55:00,
2017-02-24 08:00:00,18.0,13.2,30.22,NNW,346,1.0,3.0,81,0.00,,---,0.00,VWS V15.00,2017-02-24 16:00:00,
2017-02-24 08:05:00,18.4,13.3,30.23,NNW,346,0.0,1.0,80,0.00,,---,0.00,VWS V15.00,2017-02-24 16:05:00,
2017-02-24 08:10:00,18.9,13.8,30.23,NNW,346,0.0,0.0,80,0.00,,---,0.00,VWS V15.00,2017-02-24 16:10:00,
2017-02-24 08:15:00,19.1,13.7,30.23,NNW,346,0.0,0.0,79,0.00,,---,0.00,VWS V15.00,2017-02-24 16:15:00,
2017-02-24 08:20:00,19.6,13.9,30.23,NNW,346,0.0,0.0,78,0.00,,---,0.00,VWS V15.00,2017-02-24 16:20:00,
2017-02-24 08:25:00,19.7,13.7,30.23,NNW,346,0.0,1.0,77,0.00,,---,0.00,VWS V15.00,2017-02-24 16:25:00,
2017-02-24 08:30:00,19.6,13.3,30.23,NNW,346,0.0,0.0,76,0.00,,---,0.00,VWS V15.00,2017-02-24 16:30:00,
2017-02-24 08:35:00,19.8,13.2,30.23,NNW,346,0.0,1.0,75,0.00,,---,0.00,VWS V15.00,2017-02-24 16:35:00,
2017-02-24 08:40:00,20.3,13.4,30.23,NNW,346,0.0,0.0,74,0.00,,---,0.00,VWS V15.00,2017-02-24 16:40:00,
2017-02-24 08:45:00,20.7,13.4,30.23,NNW,346,1.0,3.0,73,0.00,,---,0.00,VWS V15.00,2017-02-24 16:45:00,
2017-02-24 08:50:00,21.0,13.1,30.24,NNW,344,0.0,3.0,71,0.00,,---,0.00,VWS V15.00,2017-02-24 16:50:00,
2017-02-24 08:55:00,21.3,13.4,30.24,NNW,338,3.0,3.0,71,0.00,,---,0.00,VWS V15.00,2017-02-24 16:55:00,
2017-02-24 09:00:00,21.5,12.9,30.24,NNW,337,2.0,3.0,69,0.00,,---,0.00,VWS V15.00,2017-02-24 17:00:00,
2017-02-24 09:05:00,21.9,13.6,30.24,NNW,337,0.0,1.0,70,0.00,,---,0.00,VWS V15.00,2017-02-24 17:05:00,
2017-02-24 09:10:00,23.4,15.7,30.24,NNW,337,0.0,0.0,72,0.00,,---,0.00,VWS V15.00,2017-02-24 17:10:00,
2017-02-24 09:14:00,24.5,15.1,30.24,NNW,337,0.0,0.0,67,0.00,,---,0.00,VWS V15.00,2017-02-24 17:14:00,
2017-02-24 09:19:00,25.3,16.2,30.24,NNW,337,0.0,0.0,68,0.00,,---,0.00,VWS V15.00,2017-02-24 17:19:00,
2017-02-24 09:24:00,24.9,14.5,30.24,NNW,337,0.0,0.0,64,0.00,,---,0.00,VWS V15.00,2017-02-24 17:24:00,
2017-02-24 09:29:00,25.3,15.9,30.25,NNW,337,0.0,0.0,67,0.00,,---,0.00,VWS V15.00,2017-02-24 17:29:00,
2017-02-24 09:34:00,25.3,14.5,30.25,NNW,337,0.0,0.0,63,0.00,,---,0.00,VWS V15.00,2017-02-24 17:34:00,
2017-02-24 09:39:00,26.0,15.9,30.25,NNW,338,0.0,2.0,65,0.00,,---,0.00,VWS V15.00,2017-02-24 17:39:00,
2017-02-24 09:44:00,26.3,15.8,30.25,NNW,337,0.0,3.0,64,0.00,,---,0.00,VWS V15.00,2017-02-24 17:44:00,
2017-02-24 09:49:00,25.6,15.1,30.25,NNW,336,2.0,2.0,64,0.00,,---,0.00,VWS V15.00,2017-02-24 17:49:00,
2017-02-24 09:54:00,27.1,16.9,30.25,NNW,336,0.0,2.0,65,0.00,,---,0.00,VWS V15.00,2017-02-24 17:54:00,
2017-02-24 09:59:00,27.8,16.1,30.25,NNW,336,0.0,1.0,61,0.00,,---,0.00,VWS V15.00,2017-02-24 17:59:00,
2017-02-24 10:04:00,27.1,16.2,30.25,NNW,336,0.0,0.0,63,0.00,,---,0.00,VWS V15.00,2017-02-24 18:04:00,
2017-02-24 10:09:00,29.0,17.6,30.25,NNW,337,0.0,2.0,62,0.00,,---,0.00,VWS V15.00,2017-02-24 18:09:00,
2017-02-24 10:14:00,28.9,16.0,30.24,NNW,337,1.0,2.0,58,0.00,,---,0.00,VWS V15.00,2017-02-24 18:14:00,
2017-02-24 10:19:00,29.1,17.3,30.24,NNW,337,1.0,2.0,61,0.00,,---,0.00,VWS V15.00,2017-02-24 18:19:00,
2017-02-24 10:24:00,28.6,15.7,30.24,NE,47,1.0,2.0,58,0.00,,---,0.00,VWS V15.00,2017-02-24 18:24:00,
2017-02-24 10:29:00,28.1,16.0,30.24,NE,50,1.0,1.0,60,0.00,,---,0.00,VWS V15.00,2017-02-24 18:29:00,
2017-02-24 10:34:00,28.7,17.0,30.24,ENE,62,2.0,2.0,61,0.00,,---,0.00,VWS V15.00,2017-02-24 18:34:00,
2017-02-24 10:39:00,29.4,17.2,30.24,ENE,62,0.0,0.0,60,0.00,,---,0.00,VWS V15.00,2017-02-24 18:39:00,
2017-02-24 10:44:00,28.4,15.9,30.24,East,87,0.0,3.0,59,0.00,,---,0.00,VWS V15.00,2017-02-24 18:44:00,
2017-02-24 10:49:00,27.9,15.8,30.24,SSE,151,1.0,2.0,60,0.00,,---,0.00,VWS V15.00,2017-02-24 18:49:00,
2017-02-24 10:54:00,28.5,15.2,30.24,SSE,153,0.0,1.0,57,0.00,,---,0.00,VWS V15.00,2017-02-24 18:54:00,
2017-02-24 10:59:00,28.7,16.2,30.24,SSE,153,0.0,1.0,59,0.00,,---,0.00,VWS V15.00,2017-02-24 18:59:00,